Regional Weather Roundup
Issued by NWS

Home | Current Version | Previous Version | Text Only | Print | Product List | Glossary Off
Versions: 1 2 3 4 5 6 7 8 9 10 11 12 13 14 15 16 17 18 19 20 21 22 23 24 25 26 27 28 29 30 31 32 33 34 35 36 37 38 39 40 41 42 43 44 45 46 47 48 49 50

000
ASUS43 KBIS 251410
RWRND

NORTH DAKOTA REGIONAL WEATHER ROUNDUP
NATIONAL WEATHER SERVICE BISMARCK ND
900 AM CDT THU MAY 25 2017

NOTE: "FAIR" INDICATES FEW OR NO CLOUDS BELOW 12,000 FEET WITH NO
SIGNIFICANT WEATHER AND/OR OBSTRUCTIONS TO VISIBILITY.


NDZ001>003-009>011-017-251500-
NORTHWEST NORTH DAKOTA

CITY           SKY/WX    TMP DP  RH WIND       PRES   REMARKS
WILLISTON      PTSUNNY   55  41  59 SW15G23   29.37S
MINOT          FAIR      56  50  80 S14       29.37S
MINOT AFB      MOSUNNY   57  51  80 S14       29.36S
$$

NDZ018>021-031>035-040>046-251500-
SOUTHWEST NORTH DAKOTA

CITY           SKY/WX    TMP DP  RH WIND       PRES   REMARKS
BISMARCK       FAIR      56  48  74 S6        29.43R
DICKINSON      FAIR      53  38  56 W16       29.42S
GARRISON         N/A     53  50  89 S9        29.40R
HETTINGER ARPT CLOUDY    50  45  83 SW6       29.46S
$$

NDZ004>008-012>016-024-026-027-054-251500-
NORTHEAST NORTH DAKOTA

CITY           SKY/WX    TMP DP  RH WIND       PRES   REMARKS
GRAND FORKS    CLOUDY    55  46  71 SE20G26   29.54S
GRND FRKS AFB  CLOUDY    53  44  72 S14G22    29.54S
DEVILS LAKE    CLOUDY    52  45  77 SE18G24   29.47S
$$

NDZ022-023-025-028>030-036>039-047>053-251500-
SOUTHEAST NORTH DAKOTA

CITY           SKY/WX    TMP DP  RH WIND       PRES   REMARKS
FARGO          MOSUNNY   59  47  64 SE20G32   29.55R
JAMESTOWN      FAIR      57  46  66 S18G26    29.46S
$$





USA.gov is the U.S. government's official web portal to all federal, state and local government web resources and services.